Weather History for Greeley, CO

Change the Weather History Date:

Monday, February 18, 2013

  Actual Average Record
Temperature  
Mean Temperature 30 °F -  
Max Temperature 42 °F 44 °F 65 °F (1986)
Min Temperature 19 °F 17 °F -14 °F (2006)
Degree Days  
Heating Degree Days 34    
Moisture  
Dew Point 10 °F    
Average Humidity 44    
Maximum Humidity 68    
Minimum Humidity 18    
Precipitation  
Precipitation 0.00 in - - ()
Sea Level Pressure  
Sea Level Pressure 29.95 in    
Wind  
Wind Speed 17 mph (NNW)    
Max Wind Speed 30 mph    
Max Gust Speed 36 mph    
Visibility 10 miles    
Events      
Averages and records for this station are not official NWS values.
T = Trace of Precipitation, MM = Missing Value Source: NWS Daily Summary

Daily Weather History Graph

Daily Weather History Graph

Search for Another Location

Airport:

Trip Planner

Search our weather history database for the weather conditions in past years. The results will help you decide how hot, cold, wet, or windy it might be!

Date:

Astronomy

Feb. 18, 2013 Rise Set
Actual Time 6:47 AM MST 5:37 PM MST
Civil Twilight 6:19 AM MST 6:05 PM MST
Nautical Twilight 5:48 AM MST 6:37 PM MST
Astronomical Twilight 5:16 AM MST 7:08 PM MST
Moon 11:24 AM MST (2/18) 1:30 AM MST (2/18)
Length of Visible Light 11h 45m
Length of Day
10h 50m
First Quarter, 59% of the Moon is Illuminated
Feb 18
First Quarter
Feb 25
Full
Mar 4
Last Quarter
Mar 11
New
Mar 19
First Quarter

Hourly Weather History & Observations

Time (MST) Temp. Windchill Dew Point Humidity Pressure Visibility Wind Dir Wind Speed Gust Speed Precip Events Conditions
12:35 AM 30.2 °F 15.9 °F 17.6 °F 60% 29.78 in 10.0 mi North 26.5 mph 31.1 mph N/A   Overcast
12:55 AM 32.0 °F 18.9 °F 17.6 °F 55% 29.79 in 10.0 mi North 24.2 mph 27.6 mph N/A   Overcast
1:15 AM 30.2 °F 17.1 °F 17.6 °F 60% 29.80 in 10.0 mi North 21.9 mph 31.1 mph N/A   Overcast
1:35 AM 30.2 °F 17.1 °F 17.6 °F 60% 29.81 in 10.0 mi North 21.9 mph 28.8 mph N/A   Overcast
1:55 AM 30.2 °F 17.1 °F 17.6 °F 60% 29.82 in 10.0 mi North 21.9 mph 25.3 mph N/A   Overcast
2:15 AM 30.2 °F 17.4 °F 17.6 °F 60% 29.83 in 10.0 mi North 20.7 mph 26.5 mph N/A   Overcast
2:35 AM 30.2 °F 18.1 °F 17.6 °F 60% 29.84 in 10.0 mi North 18.4 mph - N/A   Overcast
2:55 AM 30.2 °F 17.8 °F 17.6 °F 60% 29.85 in 10.0 mi North 19.6 mph 23.0 mph N/A   Overcast
3:15 AM 30.2 °F 19.8 °F 19.4 °F 64% 29.85 in 10.0 mi North 13.8 mph - N/A   Overcast
3:35 AM 28.4 °F 20.4 °F 17.6 °F 64% 29.86 in 10.0 mi North 8.1 mph - N/A   Overcast
3:55 AM 28.4 °F 19.7 °F 17.6 °F 64% 29.87 in 10.0 mi North 9.2 mph - N/A   Overcast
4:35 AM 24.8 °F 16.9 °F 14.0 °F 64% 29.88 in 10.0 mi North 6.9 mph - N/A   Scattered Clouds
5:15 AM 23.0 °F 15.8 °F 12.2 °F 63% 29.90 in 10.0 mi North 5.8 mph - N/A   Scattered Clouds
5:35 AM 21.2 °F 12.6 °F 12.2 °F 68% 29.91 in 9.0 mi NNE 6.9 mph - N/A   Partly Cloudy
5:55 AM 21.2 °F 13.6 °F 12.2 °F 68% 29.91 in 10.0 mi North 5.8 mph - N/A   Clear
6:15 AM 19.4 °F 11.5 °F 10.4 °F 68% 29.92 in 10.0 mi NW 5.8 mph - N/A   Clear
6:35 AM 21.2 °F 13.6 °F 12.2 °F 68% 29.93 in 10.0 mi WNW 5.8 mph - N/A   Clear
6:55 AM 19.4 °F - 10.4 °F 68% 29.94 in 10.0 mi Calm Calm - N/A   Clear
7:15 AM 21.2 °F 13.6 °F 12.2 °F 68% 29.95 in 10.0 mi NNE 5.8 mph - N/A   Clear
7:35 AM 23.0 °F 13.9 °F 14.0 °F 68% 29.96 in 10.0 mi North 8.1 mph - N/A   Clear
7:55 AM 26.6 °F 16.8 °F 15.8 °F 64% 29.96 in 10.0 mi NNW 10.4 mph - N/A   Clear
8:15 AM 30.2 °F 18.9 °F 15.8 °F 55% 29.97 in 10.0 mi NNW 16.1 mph - N/A   Clear
8:35 AM 33.8 °F 22.8 °F 14.0 °F 44% 29.98 in 10.0 mi NNW 18.4 mph - N/A   Clear
8:55 AM 35.6 °F 25.2 °F 12.2 °F 38% 29.98 in 10.0 mi NNW 18.4 mph - N/A   Clear
9:15 AM 35.6 °F 24.8 °F 12.2 °F 38% 29.98 in 10.0 mi NNW 19.6 mph - N/A   Clear
9:35 AM 37.4 °F 27.2 °F 14.0 °F 38% 29.98 in 10.0 mi NNW 19.6 mph 24.2 mph N/A   Clear
9:55 AM 37.4 °F 27.2 °F 12.2 °F 36% 29.97 in 10.0 mi NW 19.6 mph 26.5 mph N/A   Clear
10:15 AM 39.2 °F 29.0 °F 10.4 °F 31% 29.97 in 10.0 mi NNW 21.9 mph 28.8 mph N/A   Clear
10:35 AM 41.0 °F 31.9 °F 10.4 °F 29% 29.97 in 10.0 mi NW 19.6 mph 31.1 mph N/A   Clear
10:55 AM 41.0 °F 32.5 °F 10.4 °F 29% 29.97 in 10.0 mi NNW 17.3 mph 28.8 mph N/A   Clear
11:15 AM 42.8 °F 33.8 °F 8.6 °F 25% 29.96 in 10.0 mi NNW 21.9 mph 26.5 mph N/A   Partly Cloudy
11:35 AM 42.8 °F 35.1 °F 6.8 °F 23% 29.96 in 10.0 mi NW 16.1 mph 24.2 mph N/A   Clear
11:55 AM 39.2 °F 31.6 °F 3.2 °F 22% 29.95 in 10.0 mi NW 12.7 mph - N/A   Mostly Cloudy
12:15 PM 41.0 °F 35.8 °F 5.0 °F 23% 29.95 in 10.0 mi SW 8.1 mph - N/A   Overcast
12:35 PM 39.2 °F 33.6 °F 5.0 °F 24% 29.95 in 10.0 mi WNW 8.1 mph - N/A   Overcast
12:55 PM 39.2 °F 30.5 °F 3.2 °F 22% 29.95 in 10.0 mi WNW 16.1 mph 19.6 mph N/A   Overcast
1:15 PM 41.0 °F 32.2 °F 3.2 °F 21% 29.94 in 10.0 mi West 18.4 mph 32.2 mph N/A   Overcast
1:55 PM 39.2 °F 27.8 °F 3.2 °F 22% 29.94 in 10.0 mi NNW 27.6 mph 33.4 mph N/A   Mostly Cloudy
2:15 PM 39.2 °F 29.0 °F 1.4 °F 21% 29.94 in 10.0 mi NW 21.9 mph 32.2 mph N/A   Mostly Cloudy
2:35 PM 41.0 °F 31.1 °F 3.2 °F 21% 29.95 in 10.0 mi NNW 23.0 mph 29.9 mph N/A   Mostly Cloudy
2:55 PM 42.8 °F 33.8 °F 3.2 °F 19% 29.96 in 10.0 mi NW 21.9 mph 31.1 mph N/A   Overcast
3:15 PM 42.8 °F 33.1 °F 1.4 °F 18% 29.96 in 10.0 mi NNW 25.3 mph 35.7 mph N/A   Overcast
3:35 PM 41.0 °F 29.8 °F 3.2 °F 21% 29.97 in 10.0 mi NNW 29.9 mph 34.5 mph N/A   Mostly Cloudy
4:15 PM 39.2 °F 28.5 °F 3.2 °F 22% 29.98 in 10.0 mi North 24.2 mph 29.9 mph N/A   Clear
4:35 PM 39.2 °F 28.7 °F 3.2 °F 22% 29.98 in 10.0 mi North 23.0 mph 27.6 mph N/A   Clear
4:55 PM 37.4 °F 26.1 °F 3.2 °F 24% 29.98 in 10.0 mi North 24.2 mph - N/A   Clear
5:15 PM 35.6 °F 24.2 °F 3.2 °F 26% 29.98 in 10.0 mi North 21.9 mph - N/A   Clear
5:35 PM 33.8 °F 22.5 °F 3.2 °F 28% 29.99 in 10.0 mi North 19.6 mph 23.0 mph N/A   Clear
5:55 PM 32.0 °F 20.5 °F 3.2 °F 30% 29.99 in 10.0 mi North 18.4 mph - N/A   Clear
6:15 PM 30.2 °F 18.1 °F 5.0 °F 34% 30.00 in 10.0 mi NNE 18.4 mph - N/A   Clear
6:35 PM 30.2 °F 18.9 °F 6.8 °F 37% 30.01 in 9.0 mi NNE 16.1 mph 23.0 mph N/A   Clear
6:55 PM 28.4 °F 17.0 °F 8.6 °F 43% 30.01 in 10.0 mi NNE 15.0 mph - N/A   Clear
7:15 PM 28.4 °F 16.2 °F 8.6 °F 43% 30.01 in 10.0 mi NNE 17.3 mph 23.0 mph N/A   Clear
7:35 PM 28.4 °F 17.0 °F 10.4 °F 47% 30.02 in 8.0 mi North 15.0 mph - N/A   Clear
8:15 PM 26.6 °F 19.1 °F 8.6 °F 47% 30.03 in 10.0 mi NE 6.9 mph - N/A   Clear
8:35 PM 26.6 °F 20.0 °F 8.6 °F 47% 30.04 in 10.0 mi ENE 5.8 mph - N/A   Clear
8:55 PM 23.0 °F - 6.8 °F 50% 30.05 in 10.0 mi Calm Calm - N/A   Clear
9:15 PM 19.4 °F 11.5 °F 6.8 °F 58% 30.06 in 10.0 mi SSE 5.8 mph - N/A   Clear
9:35 PM 21.2 °F - 10.4 °F 63% 30.07 in 10.0 mi Calm Calm - N/A   Clear
9:55 PM 21.2 °F - 12.2 °F 68% 30.09 in 10.0 mi Calm Calm - N/A   Clear
10:15 PM 21.2 °F - 10.4 °F 63% 30.09 in 10.0 mi Calm Calm - N/A   Clear